Wind_Speed
31 30 29 29 28 27 27 26 25 24 23 22 22 21 20 19 19 19 19 19 19 20 20 20 19 19 19 18 18 17 17 17 17 16 13 12 9 9 9 9 8 7 6 7 7 7 6 5 6 6 5 5 5 5 6 6 7 8 9 11 15 21 28 33 35 38 40 41 42 42 42 41 41 42 43 43 43 44 45 45 45 44 44 43 41 41 40 39
33 32 31 30 30 29 28 28 27 26 25 24 23 22 22 21 21 21 21 21 21 22 22 23 22 22 21 21 21 19 18 19 20 18 16 15 12 10 9 10 11 10 8 8 9 9 8 7 7 7 7 7 7 8 8 8 8 9 10 10 11 12 17 23 28 32 35 38 40 41 41 41 41 41 41 40 40 40 40 40 39 39 38 37 36 36 35 34
34 34 33 32 31 31 30 29 29 28 27 26 25 24 24 23 23 23 23 23 23 24 24 25 25 24 24 24 23 22 21 20 21 21 18 17 16 13 12 11 11 11 11 11 11 12 11 10 9 9 9 9 9 10 10 10 10 10 11 11 12 11 11 13 18 24 29 32 34 37 39 40 40 41 40 38 37 37 36 35 35 34 33 32 31 30 30 29
36 35 34 34 33 32 32 31 30 29 28 27 27 26 26 26 26 26 26 26 25 26 26 27 27 27 27 27 26 25 24 22 22 23 20 19 19 17 15 14 12 11 12 13 14 15 14 12 11 10 10 9 9 11 11 11 11 11 12 12 12 13 13 12 13 16 21 25 29 31 32 35 37 37 36 36 35 34 33 32 31 30 29 28 28 27 27 27
36 36 36 35 34 33 33 32 31 30 29 29 28 28 28 28 29 29 29 29 28 28 28 29 29 29 28 28 28 27 26 25 23 23 22 20 20 20 18 17 16 14 13 14 15 16 17 15 13 12 12 11 9 11 12 12 12 13 12 13 13 13 14 14 14 14 15 17 20 24 27 29 31 30 30 30 29 29 29 28 28 27 27 27 27 27 28 28
37 36 36 35 35 34 33 33 32 31 31 31 31 31 31 31 32 32 32 32 32 31 31 31 31 30 30 30 29 29 28 27 24 22 22 21 21 22 21 19 19 17 15 16 16 16 17 17 17 16 15 13 11 10 13 13 13 13 14 13 13 13 14 14 15 15 15 14 14 17 22 26 27 24 23 23 24 25 25 25 26 26 26 27 27 27 27 27
37 36 36 36 35 35 34 34 34 33 33 33 33 34 34 35 35 35 35 35 35 35 34 33 33 32 32 31 31 30 29 29 27 24 23 22 22 23 23 22 21 21 19 19 19 18 17 17 18 19 18 17 13 11 13 13 13 13 14 14 13 13 13 14 15 15 16 15 14 14 17 23 25 22 19 19 21 22 23 24 25 26 26 26 26 25 24 24
38 38 38 38 37 37 37 36 36 36 36 36 36 37 37 38 38 38 38 38 38 37 37 36 35 34 34 33 33 32 31 31 30 29 27 26 24 24 26 25 24 24 22 22 22 21 19 18 19 20 20 20 17 15 14 14 13 12 13 14 14 13 13 14 15 16 16 16 13 12 14 16 19 18 18 20 21 22 22 23 24 24 24 23 23 22 22 20
40 40 40 40 40 40 40 39 39 39 39 39 39 39 40 41 41 40 40 40 40 39 39 38 37 36 36 36 35 34 34 33 33 33 32 30 29 28 28 28 28 27 26 25 25 26 22 19 21 22 21 21 20 19 17 16 14 13 12 13 14 14 13 14 15 16 17 17 14 12 13 11 10 9 12 15 18 20 21 21 21 20 20 20 20 20 18 16
43 43 43 43 43 43 42 42 42 42 42 41 41 42 43 43 43 42 41 41 42 41 40 40 40 39 39 38 38 37 36 35 36 36 35 34 33 32 31 31 32 31 29 28 29 29 26 21 23 25 23 21 21 22 21 19 16 14 13 12 12 13 14 14 16 16 17 18 16 13 13 10 6 4 5 10 13 16 17 16 16 16 16 17 17 16 14 12
45 45 45 45 45 45 45 45 44 44 43 43 43 43 44 45 44 43 42 43 44 43 42 42 42 42 42 41 41 41 39 38 39 38 38 37 36 36 35 34 35 34 33 32 32 32 29 25 26 28 26 22 21 23 23 22 19 16 15 13 12 13 13 13 15 17 17 18 18 16 14 11 6 4 6 9 11 14 14 13 12 12 12 13 14 13 11 9
48 48 48 47 47 47 47 46 46 45 44 43 44 45 46 46 45 44 44 45 46 45 44 44 44 44 44 43 43 43 41 41 41 41 42 41 40 39 38 37 37 37 36 35 35 34 32 29 29 31 29 24 23 25 25 24 22 19 17 15 14 14 14 13 14 16 17 18 19 18 16 13 8 5 5 8 9 11 12 10 8 9 9 10 11 10 9 8
49 49 49 49 49 48 48 48 48 47 45 45 46 47 48 48 46 46 46 47 48 47 46 46 46 46 46 46 47 46 44 43 43 44 45 45 44 43 42 41 40 39 39 39 38 36 33 32 33 33 31 29 27 26 26 26 24 22 19 16 15 16 16 13 12 15 18 18 18 19 18 15 11 7 5 6 8 9 9 8 6 7 8 9 9 9 8 8
51 51 51 51 51 50 50 50 50 49 47 47 48 49 50 49 48 48 48 49 50 50 49 49 49 49 48 50 50 48 47 47 47 48 48 48 48 47 46 45 44 43 43 42 41 39 36 35 36 35 34 33 29 26 27 28 27 25 22 18 15 17 17 14 12 14 17 17 17 18 18 16 12 9 6 5 7 7 7 6 6 7 8 8 8 9 8 9
53 53 53 53 53 53 52 53 53 51 49 49 51 51 52 51 51 51 51 52 53 53 52 52 52 52 52 53 53 51 51 50 51 52 51 51 51 50 50 49 48 47 46 45 44 42 40 38 39 38 37 35 31 30 29 30 30 27 25 20 16 17 18 16 13 13 15 17 16 16 17 15 13 10 8 6 6 7 5 5 6 6 8 8 8 9 9 8
55 55 55 55 55 55 54 55 55 53 52 52 53 54 54 54 54 54 54 54 55 55 55 54 54 54 54 56 55 53 53 53 53 53 52 52 52 52 52 51 50 50 49 47 46 45 43 42 42 41 39 36 35 34 32 32 33 30 25 21 17 18 20 17 14 12 13 15 15 14 14 14 12 10 8 6 5 6 5 4 6 6 7 7 8 9 9 8
58 58 57 58 58 57 57 57 57 56 55 55 56 56 56 56 56 56 56 57 57 57 57 56 56 56 55 56 56 54 54 54 54 53 53 52 52 52 52 51 51 51 50 49 48 48 47 46 45 44 41 39 38 36 35 36 36 31 25 22 20 19 21 19 15 12 11 14 15 12 12 12 10 8 7 6 5 6 5 5 6 6 6 7 8 9 9 8
61 61 61 61 61 61 60 60 60 60 58 58 59 58 58 58 58 58 58 58 59 58 57 57 57 56 55 55 55 54 53 53 52 52 51 51 51 50 50 50 50 50 50 50 50 50 49 49 48 46 44 43 41 39 40 40 35 30 26 24 22 21 22 21 17 13 11 13 15 12 10 10 9 6 6 7 6 6 6 5 6 7 7 7 7 8 9 8
64 64 64 64 63 63 63 62 62 62 61 60 60 61 60 59 59 59 59 60 59 58 58 58 57 56 55 53 52 51 51 50 49 49 48 49 49 48 48 48 48 49 49 50 50 50 50 50 49 49 48 46 44 42 43 41 34 31 29 27 25 23 24 24 20 16 13 13 14 13 9 8 9 7 4 6 7 7 7 6 7 8 7 7 7 8 9 9
67 67 67 67 66 65 65 64 64 64 64 63 62 62 61 60 60 60 61 60 59 59 58 57 56 56 54 51 49 49 49 48 47 48 46 46 47 47 46 46 47 47 47 48 49 49 49 50 52 53 52 49 46 45 45 42 36 32 31 30 28 26 26 26 23 19 16 14 13 13 11 7 7 8 5 4 7 7 7 8 8 9 8 8 8 8 9 10
68 68 69 69 68 67 66 66 66 65 66 65 64 63 63 62 61 60 61 61 59 58 57 56 54 55 54 49 47 47 46 47 48 47 45 44 44 44 44 44 44 44 44 44 46 47 48 50 52 53 52 49 48 47 46 44 39 34 34 33 31 30 29 27 25 23 19 16 14 14 13 8 6 6 5 2 4 7 7 8 9 9 9 8 8 7 8 10
70 69 70 71 71 70 68 68 68 68 68 68 67 65 64 63 61 60 59 59 59 57 55 55 53 53 55 48 44 45 44 47 49 46 44 43 43 43 42 39 41 41 40 41 42 44 45 47 48 49 50 49 48 48 47 46 42 37 37 36 35 35 33 30 28 25 21 17 14 15 15 11 6 4 4 2 3 6 7 7 7 8 8 8 7 6 8 10
73 72 73 74 74 73 71 70 70 70 70 69 69 67 66 64 62 60 58 57 58 56 54 55 52 52 54 49 43 42 43 47 47 43 44 44 43 42 38 36 38 37 36 38 40 40 42 43 43 45 48 49 49 49 49 47 44 41 40 39 41 39 36 33 31 27 23 18 15 16 17 14 9 5 4 5 4 6 6 6 6 7 8 6 5 6 9 11
75 75 75 75 76 76 74 72 71 71 70 70 70 68 67 65 63 61 58 55 56 56 55 53 52 51 53 49 41 38 42 46 46 43 44 45 43 40 38 38 37 33 34 37 36 37 39 39 38 41 44 46 48 49 50 49 47 46 43 44 46 42 38 36 33 29 26 21 16 18 19 17 12 7 6 6 5 6 6 5 6 7 6 5 5 6 9 11
76 76 76 76 76 77 76 74 72 71 71 71 70 69 68 66 64 61 59 55 52 56 57 52 50 51 52 48 41 40 42 44 46 43 41 43 41 38 39 39 37 35 36 34 31 33 36 35 34 37 39 41 44 46 49 49 49 48 46 48 50 44 39 36 34 31 29 25 19 18 19 19 14 10 8 7 6 7 6 5 5 6 5 5 5 6 9 10
77 77 77 77 77 77 78 75 73 72 72 71 70 69 67 66 64 61 59 56 51 54 59 54 49 50 51 48 43 42 41 42 47 43 38 41 41 38 38 38 39 39 36 29 27 31 35 33 31 34 35 36 39 42 46 48 49 49 50 52 52 45 39 36 35 33 31 28 22 17 19 19 18 15 11 10 9 8 7 5 5 6 6 6 7 9 10 12
79 78 78 78 77 77 78 77 75 73 72 72 71 69 67 65 64 61 60 57 52 54 58 56 51 48 49 49 46 44 41 43 47 41 39 43 42 39 36 36 38 39 34 29 28 33 33 29 28 31 33 33 35 38 40 42 44 49 52 52 50 45 41 38 36 33 33 31 23 18 18 20 21 19 14 14 14 10 8 6 6 7 9 9 10 11 13 15
80 79 79 79 78 77 77 77 77 74 73 73 72 69 67 65 63 61 60 58 54 54 55 57 54 49 48 49 48 46 44 46 45 41 43 44 40 37 35 34 38 38 34 29 31 34 30 27 28 28 28 30 33 34 33 34 40 46 48 49 49 46 43 40 36 33 34 31 25 21 20 21 24 22 19 19 18 13 9 8 9 10 12 12 12 12 13 14
81 79 78 78 78 77 77 77 77 76 75 74 72 70 68 66 63 62 61 59 57 55 54 56 57 53 49 50 51 50 47 48 46 43 45 44 40 38 36 37 39 37 32 29 32 33 28 28 28 25 26 29 30 29 28 31 38 40 41 45 48 46 44 42 38 36 35 31 27 25 23 23 27 24 24 25 21 15 11 11 12 13 14 14 13 13 13 14
81 79 78 77 77 78 77 76 76 77 76 76 74 71 70 68 65 64 62 59 59 58 56 56 57 56 54 52 53 53 51 50 48 46 45 44 43 40 38 40 38 34 31 29 31 31 28 29 28 26 28 29 26 24 25 30 36 34 34 40 44 45 45 43 41 40 36 30 29 31 28 27 29 28 29 27 22 17 16 16 16 16 17 17 16 15 14 14
82 80 79 77 77 78 78 77 77 77 77 78 76 74 72 70 68 66 61 59 62 62 59 59 58 59 58 56 55 56 55 53 51 49 47 46 45 41 39 40 37 34 33 30 32 34 32 31 31 31 30 27 23 22 24 28 31 30 31 36 38 40 42 42 42 41 36 32 34 38 34 30 32 33 31 28 23 21 20 18 17 17 18 19 18 17 15 15
84 82 80 78 78 78 79 79 79 79 78 79 79 77 75 73 70 66 61 62 65 63 62 62 61 62 62 61 59 59 59 57 54 52 50 48 46 43 41 41 40 38 34 34 38 38 35 33 32 30 28 24 24 25 26 27 28 27 29 31 31 33 35 38 41 40 39 39 40 43 37 32 35 35 32 29 26 24 22 20 19 18 18 20 20 19 18 17
86 85 83 81 79 78 79 80 81 82 81 81 81 80 79 76 71 66 64 67 67 64 65 66 65 66 66 66 65 63 62 61 58 56 53 50 49 46 44 43 43 40 36 38 40 37 34 32 29 27 26 26 28 30 29 27 24 22 23 25 26 28 29 33 39 41 44 44 44 45 38 31 36 38 34 33 29 26 25 22 21 20 20 20 22 22 21 20
88 86 85 84 82 81 80 81 83 84 84 83 83 83 82 78 72 69 69 71 70 67 67 68 68 69 70 70 70 67 65 64 63 60 56 53 50 49 47 46 45 42 41 41 40 37 36 33 31 32 32 32 31 31 29 25 21 19 20 20 21 25 28 32 37 40 45 46 45 44 36 30 37 43 39 34 29 27 27 26 24 23 22 22 22 24 25 24
88 87 85 85 85 84 83 83 84 85 87 86 86 85 83 79 77 75 74 74 73 71 70 71 72 72 73 73 73 72 70 69 66 63 60 56 52 52 51 50 49 47 46 44 42 42 39 37 38 39 36 33 32 32 28 23 21 20 17 15 19 26 28 29 30 33 38 42 43 43 37 34 40 44 39 34 31 30 30 29 28 26 25 25 25 27 27 27
88 88 86 84 85 86 86 86 86 86 87 89 88 87 84 82 82 81 78 76 76 75 74 75 75 74 75 75 75 75 74 72 70 67 64 61 57 56 56 55 54 51 49 48 47 45 42 42 44 41 35 34 35 33 27 22 21 19 13 15 22 24 21 22 26 28 30 35 42 45 42 41 43 43 40 37 34 33 32 32 31 29 28 27 28 29 29 29
88 89 87 85 85 87 88 88 88 88 88 89 90 88 87 86 86 84 82 80 79 78 78 78 78 77 76 76 75 76 76 75 73 70 68 66 63 61 59 58 57 54 53 52 49 47 45 45 45 40 36 37 37 33 26 21 20 17 16 21 23 17 15 19 24 26 27 31 40 46 46 46 45 44 43 41 39 37 35 35 34 32 31 31 31 31 30 30
89 90 89 87 87 89 89 90 90 90 89 90 90 90 90 90 89 88 86 84 83 82 82 82 81 79 78 78 77 77 78 78 76 74 72 70 67 64 61 61 60 58 57 55 52 50 47 46 46 42 40 40 37 32 25 22 22 22 23 24 19 14 15 18 20 24 26 28 34 40 44 47 47 48 48 45 43 42 40 38 36 35 34 34 34 32 31 31
91 91 90 89 90 91 91 91 92 92 92 91 91 91 91 91 92 92 90 88 87 86 85 84 84 82 81 80 79 79 80 80 79 77 75 73 70 66 64 64 63 61 60 58 55 52 51 49 48 47 45 42 37 30 25 25 27 27 25 22 18 17 17 16 16 19 22 25 29 33 40 48 51 52 52 49 47 46 43 41 39 38 37 36 36 34 33 32
95 95 93 91 92 94 93 93 93 94 94 93 92 92 92 92 93 95 94 92 90 89 88 87 86 85 83 82 82 82 82 82 81 80 77 75 73 70 67 67 66 64 62 61 58 56 55 52 49 50 48 42 36 31 29 32 33 30 26 23 21 19 17 15 14 15 18 22 25 28 35 46 52 54 54 52 50 48 46 44 42 41 39 38 38 36 35 34
99 99 97 94 95 96 95 94 95 95 96 95 94 93 93 93 94 96 97 96 94 92 91 90 89 88 86 85 85 85 84 83 83 82 80 78 76 73 70 69 68 67 66 65 63 61 58 53 51 51 49 43 38 37 37 37 35 31 27 25 22 20 16 13 12 14 16 18 22 26 30 39 48 53 55 53 51 50 48 46 44 43 41 40 40 38 37 36
103 103 100 97 98 99 98 97 96 96 97 97 96 95 95 95 95 96 98 99 97 96 95 94 92 91 90 89 88 87 86 85 85 84 84 82 79 75 72 71 70 69 68 68 67 65 60 56 53 52 50 47 45 44 42 40 38 34 29 26 24 19 13 12 14 17 17 15 18 22 26 34 41 47 52 54 52 51 50 49 47 46 44 42 42 40 39 38
106 106 103 100 101 102 101 100 99 98 98 98 97 96 96 97 97 97 99 100 100 100 98 96 95 94 93 92 91 90 89 88 87 87 87 86 83 78 75 74 72 71 70 70 69 67 63 60 57 54 54 53 50 48 45 43 40 35 29 27 25 20 18 19 20 20 16 12 12 15 20 29 34 38 44 50 52 52 51 50 49 48 47 46 45 43 40 40
109 109 107 104 104 104 103 102 102 101 100 99 98 98 98 98 98 98 99 102 102 102 100 99 98 98 96 95 94 93 92 91 89 89 89 88 86 82 79 77 76 75 74 72 71 69 67 64 61 58 58 56 53 50 46 44 41 36 31 30 28 27 27 25 23 21 16 13 13 12 16 25 31 32 35 41 47 51 53 52 51 51 51 50 49 46 43 42
110 111 111 109 107 107 106 105 103 103 102 102 101 100 99 99 99 98 100 103 103 102 101 102 102 100 98 97 96 97 96 94 92 91 90 90 89 86 83 81 80 78 77 75 73 71 69 67 64 61 60 58 55 52 48 46 45 41 38 35 34 34 32 29 28 24 19 18 18 15 17 24 29 31 31 34 38 43 50 53 53 53 54 53 52 49 46 45
107 107 108 108 108 108 109 108 106 105 104 104 103 102 102 101 100 100 100 103 104 102 103 105 104 103 100 99 99 99 99 98 96 94 92 91 91 89 87 85 83 81 80 78 76 74 72 70 67 65 63 61 58 55 51 51 49 45 43 42 41 39 37 35 30 22 20 21 20 20 22 25 28 30 29 30 31 34 40 48 53 55 56 55 54 52 50 48
99 101 102 103 103 103 104 106 108 108 107 106 106 105 104 104 103 102 102 103 104 103 104 105 105 104 103 102 101 101 101 100 99 97 95 93 92 91 90 88 86 84 83 81 80 78 75 73 71 69 66 64 61 57 55 54 50 47 47 47 45 44 42 36 27 23 24 22 18 21 25 24 28 31 27 25 27 28 30 36 45 52 57 57 55 54 52 51
87 88 90 93 95 95 95 98 102 106 108 108 108 108 107 106 106 105 105 104 104 104 104 104 104 104 105 104 104 103 102 103 102 101 99 95 94 93 92 91 89 87 85 84 82 80 79 77 75 73 69 66 63 61 60 58 55 52 51 49 48 46 42 35 29 29 28 21 18 23 23 21 25 31 27 24 24 24 24 25 31 41 51 57 58 57 55 54
74 75 77 79 83 83 84 87 91 97 102 105 107 109 109 108 108 108 108 107 106 105 104 104 104 105 105 106 106 105 104 104 104 104 102 99 97 95 95 94 92 90 88 87 84 82 80 80 79 76 72 69 67 66 65 64 61 58 54 52 50 48 43 37 34 33 30 25 24 26 21 19 23 28 29 28 25 23 23 23 26 31 38 48 56 59 59 57
65 66 67 69 71 72 73 76 79 84 90 95 102 107 109 109 110 111 111 110 109 108 106 106 105 105 105 106 106 107 107 106 105 104 103 102 100 98 98 97 95 93 92 90 87 84 82 82 81 79 75 73 71 70 70 69 65 61 57 54 51 47 43 40 38 36 33 29 29 29 24 23 26 29 31 31 29 27 25 25 27 28 30 35 43 52 58 60
58 59 61 62 62 62 64 67 69 73 77 82 91 99 104 108 110 111 113 113 113 112 109 108 106 105 105 105 106 108 108 107 106 105 104 103 102 102 101 99 98 97 95 93 90 87 84 83 82 81 79 76 75 75 73 71 69 65 59 53 48 46 44 43 42 40 37 34 34 32 27 29 34 35 33 31 30 29 29 28 27 27 28 30 32 38 47 55
51 52 54 56 56 55 57 59 61 65 68 71 79 88 95 101 106 109 112 113 115 115 113 110 109 107 106 106 106 107 107 107 105 105 105 104 104 104 103 102 101 99 97 96 94 90 87 85 84 84 81 79 80 79 75 74 73 65 55 50 50 49 49 49 48 45 42 41 38 33 31 36 41 37 32 30 30 30 30 29 28 28 29 30 31 32 37 44
Wind_Direction
270 271 271 272 273 273 274 275 276 276 276 276 276 276 277 278 280 282 284 286 289 292 294 295 297 300 301 302 304 306 308 308 308 311 312 314 320 318 317 315 314 312 304 303 304 303 306 310 310 309 308 308 308 309 309 308 311 313 305 290 273 262 256 253 252 253 253 254 254 255 256 257 258 259 261 263 265 266 267 269 271 272 274 275 276 277 277 278
268 269 269 270 271 272 273 273 274 274 273 273 273 273 274 274 276 278 280 283 285 288 290 292 294 296 296 297 297 298 299 300 299 302 305 305 307 304 299 302 304 306 301 296 297 296 297 298 302 304 305 308 312 311 311 311 315 319 321 322 315 294 273 261 255 253 253 254 254 255 256 257 258 259 260 262 264 266 268 270 271 273 274 276 277 278 279 278
267 268 269 269 270 270 271 271 271 271 271 270 270 270 271 273 274 276 277 279 282 284 286 288 291 292 293 292 293 293 292 293 292 295 300 300 300 296 290 290 292 298 300 298 296 294 293 293 295 297 301 307 312 313 313 313 316 322 325 329 328 324 312 289 270 260 257 255 255 256 256 256 257 258 260 262 264 266 269 271 272 274 276 277 279 280 280 280
268 269 269 269 269 270 270 269 269 269 268 268 268 269 270 271 273 275 276 277 278 280 282 284 286 288 289 289 289 289 288 288 286 289 293 293 292 290 287 289 288 289 293 294 295 295 295 294 293 292 295 299 306 311 312 313 317 323 328 330 331 334 335 328 307 284 270 262 258 258 258 256 256 258 260 262 265 267 269 272 274 276 277 278 279 280 280 281
269 269 270 270 270 270 269 269 268 268 268 268 268 269 270 271 273 274 275 276 277 278 279 281 283 285 285 286 287 286 286 285 283 285 287 285 285 287 287 287 286 286 286 286 288 292 295 297 297 295 293 293 299 305 307 310 315 320 325 328 333 339 343 341 329 314 301 285 270 264 261 258 257 258 261 263 266 269 271 272 274 275 276 277 278 278 279 280
269 269 270 270 270 270 270 270 270 269 269 270 270 271 271 273 273 274 275 276 276 277 278 279 281 282 282 283 284 284 285 284 283 282 281 280 280 282 283 283 283 283 282 283 284 287 291 295 298 298 296 293 294 300 301 305 312 316 319 323 332 341 343 341 333 325 320 315 305 285 269 262 260 260 264 268 270 271 271 272 273 274 275 276 277 278 279 278
268 269 269 270 270 270 271 271 271 271 271 272 272 273 273 274 274 275 275 276 277 278 278 278 279 280 280 281 281 282 282 283 283 280 277 276 276 277 279 279 279 280 281 281 282 283 285 290 294 295 296 294 294 297 297 301 308 313 315 317 326 337 340 336 332 331 327 325 328 313 284 268 261 257 261 268 270 272 272 272 272 273 274 276 276 277 277 277
268 269 269 270 270 271 271 271 272 272 272 273 273 274 274 274 274 275 276 277 278 278 278 278 279 279 279 279 279 279 280 280 280 279 278 276 273 272 275 276 275 278 279 278 279 280 281 285 288 288 290 292 295 296 295 297 302 307 310 313 319 327 332 331 328 330 331 331 334 323 300 280 266 258 258 261 264 267 269 271 272 272 273 274 275 275 275 275
268 268 269 270 270 271 271 272 272 272 273 273 274 275 275 274 274 275 276 277 277 277 277 278 278 277 277 277 278 277 277 279 279 278 278 276 274 271 271 272 273 274 275 275 276 277 279 281 281 281 282 287 292 294 293 294 296 301 303 308 314 318 323 326 325 327 330 333 339 328 310 300 285 272 268 268 268 268 268 268 270 272 273 274 273 271 270 269
267 268 269 269 270 270 271 271 272 272 272 273 274 274 274 274 274 275 276 277 276 277 277 278 278 277 277 277 278 277 277 278 277 278 277 276 274 272 269 269 271 271 271 271 272 274 278 277 275 276 276 280 286 290 290 290 293 296 297 301 306 309 315 319 320 324 327 329 339 337 320 313 308 304 299 292 286 280 274 271 270 270 271 271 267 262 258 255
267 268 268 269 269 270 270 271 271 271 272 273 273 273 273 273 274 275 276 277 276 277 278 278 278 278 278 279 278 277 278 278 277 277 277 275 274 273 271 270 271 271 270 269 269 272 274 272 271 272 273 275 279 282 284 287 290 291 293 297 298 299 305 313 318 321 324 325 335 342 333 325 318 309 308 301 291 281 274 267 265 265 264 262 257 249 241 233
268 268 268 269 269 269 270 270 270 271 271 272 273 273 273 274 275 276 276 277 277 278 278 278 278 279 279 279 277 277 278 278 278 277 276 275 274 273 272 271 271 270 269 267 267 269 270 268 266 268 271 271 271 273 277 281 285 287 290 293 296 295 297 308 316 316 318 321 332 345 342 334 325 304 296 299 289 276 270 264 262 263 258 252 247 236 222 208
268 269 269 269 269 270 270 270 270 271 271 273 273 273 274 275 275 276 276 277 277 277 277 277 278 278 278 277 276 277 278 277 276 275 274 275 274 274 273 272 270 268 268 267 267 268 267 265 263 265 268 266 264 268 273 276 278 281 284 288 293 295 296 303 311 309 311 319 331 345 346 337 328 311 293 296 292 279 273 273 267 259 249 237 234 222 200 182
269 270 270 270 271 271 271 271 271 271 272 272 273 273 274 275 276 276 276 276 276 277 277 277 277 277 277 276 275 276 276 275 274 272 273 273 273 273 272 271 269 268 266 267 267 266 264 262 261 261 261 262 263 265 268 270 272 274 276 280 289 293 293 298 303 304 309 318 330 344 348 340 331 319 304 298 295 289 286 282 266 247 232 219 215 205 181 166
271 271 271 271 271 271 272 272 272 272 272 272 272 273 273 274 275 275 275 275 276 276 276 277 277 277 276 276 276 276 276 275 273 273 273 273 272 272 270 269 268 266 265 265 265 265 263 260 258 257 258 260 262 260 261 264 267 267 270 275 283 287 288 291 296 301 308 314 324 341 348 343 334 323 315 308 297 293 290 275 257 231 213 200 197 190 169 160
270 271 271 271 271 271 271 271 272 272 272 272 272 272 273 274 274 275 275 275 276 276 276 277 277 277 277 277 277 277 276 275 274 274 273 272 271 270 269 267 266 264 263 261 261 261 259 257 255 255 256 257 256 255 256 259 260 261 265 272 278 281 283 286 290 295 304 308 316 335 347 345 337 326 318 310 291 282 274 251 241 220 201 191 188 181 165 162
270 270 270 270 270 270 270 271 271 271 271 271 272 272 273 273 274 275 275 275 275 276 276 277 277 277 276 276 277 277 276 275 275 274 272 271 269 268 267 266 264 262 260 258 256 255 255 254 253 253 254 255 253 253 253 252 254 259 263 268 273 276 279 281 282 286 294 299 306 324 344 347 342 332 313 299 283 270 259 238 234 219 201 193 185 179 169 170
270 270 269 269 269 270 270 270 270 271 271 271 271 271 272 273 274 274 275 275 275 276 276 276 275 275 275 275 276 276 275 275 274 273 271 269 268 267 265 264 262 261 259 256 253 253 252 252 252 253 252 252 250 250 249 250 253 257 260 263 268 270 272 274 275 279 284 287 296 310 332 343 341 335 305 287 282 269 259 244 240 229 210 199 192 185 178 179
269 269 269 269 269 269 269 269 270 270 270 270 271 271 272 272 273 274 274 274 275 275 275 274 274 273 273 273 274 274 272 272 271 268 267 267 267 266 264 262 261 259 258 256 254 251 250 250 250 249 247 247 248 248 249 252 253 254 256 258 260 263 265 269 270 274 275 275 286 298 313 334 335 332 310 276 269 265 264 253 245 238 222 209 204 199 189 186
268 268 268 268 268 268 268 269 269 270 270 270 270 271 271 272 272 273 273 273 273 273 273 273 272 272 271 270 270 269 270 269 264 261 263 263 263 263 262 260 259 257 256 255 254 251 248 246 245 245 246 247 248 249 250 252 252 250 251 252 254 257 258 262 266 267 269 270 276 284 293 314 327 331 337 287 268 270 270 259 246 238 228 216 210 211 201 191
268 268 268 268 268 268 268 269 269 269 270 270 269 270 270 271 271 271 272 272 271 271 271 270 269 268 268 268 267 266 265 263 259 258 259 258 257 258 257 256 256 255 255 253 252 250 248 245 245 247 248 248 249 249 250 252 250 247 248 248 248 250 252 255 259 261 264 270 272 275 281 289 306 323 340 321 277 280 280 269 253 237 228 216 208 216 213 197
267 268 268 268 268 268 267 268 268 269 269 270 269 269 269 269 269 269 269 270 269 269 268 267 266 265 266 266 264 263 260 257 258 258 255 251 249 250 251 252 252 253 253 252 251 250 249 248 248 248 248 246 246 246 247 248 248 245 245 246 244 243 245 249 252 255 258 264 269 270 272 275 276 299 318 298 264 270 280 280 258 230 221 215 205 215 217 199
267 267 267 267 268 267 267 267 267 268 268 268 268 268 268 267 267 266 266 266 266 266 264 263 263 261 263 265 262 260 256 253 255 254 250 248 246 244 244 245 247 250 249 248 249 249 250 250 249 247 246 244 243 242 242 243 244 242 241 242 242 240 240 243 247 251 253 255 262 264 264 267 265 269 287 279 259 256 269 274 247 218 208 208 204 211 212 197
267 267 267 267 267 267 267 266 266 266 266 266 267 267 266 266 265 264 263 262 263 263 260 260 260 258 260 263 261 252 248 250 251 249 248 248 246 241 238 240 244 244 242 245 248 248 248 249 248 247 245 244 242 241 241 241 241 240 238 239 240 238 236 239 243 248 250 249 252 259 262 264 262 254 260 269 262 251 256 261 235 212 197 198 200 199 200 195
266 266 266 266 266 266 266 265 265 264 264 264 264 264 265 264 263 262 261 259 258 259 258 255 255 256 258 260 256 246 243 249 250 246 247 249 246 239 237 239 240 238 237 240 243 244 247 248 245 246 245 244 243 241 240 240 239 239 238 238 239 237 235 236 239 242 246 246 246 255 263 265 262 251 245 253 251 240 244 249 229 201 185 187 180 174 179 184
266 265 265 265 265 265 265 265 264 263 263 262 262 262 262 262 261 260 259 257 252 253 256 254 250 252 256 256 252 245 240 245 249 246 246 248 245 240 238 238 237 236 236 235 237 241 245 246 244 244 245 244 244 242 240 239 238 238 237 237 239 238 235 235 236 238 243 244 241 248 260 263 261 252 242 237 237 232 227 235 221 191 183 181 164 158 160 164
266 265 265 264 264 264 264 263 262 262 261 260 260 259 259 258 258 258 256 255 249 248 253 255 251 247 251 253 251 245 238 240 248 247 244 244 245 243 240 239 239 238 235 233 238 242 242 241 240 241 244 245 243 242 241 241 239 238 237 239 241 240 237 235 234 236 240 242 239 240 252 258 256 252 243 234 231 225 213 214 215 196 190 184 168 161 158 157
266 265 265 264 263 263 262 262 261 260 258 258 257 256 256 255 255 255 254 252 248 245 248 253 253 246 244 248 250 247 239 238 245 246 244 244 245 244 240 238 239 239 235 235 241 243 241 238 236 238 243 243 243 243 244 243 241 239 239 241 242 241 238 236 234 234 238 241 239 237 242 248 250 249 243 236 230 220 204 204 211 204 197 190 180 174 169 167
266 265 264 264 263 262 261 261 260 259 257 256 255 254 253 252 252 251 250 250 247 244 244 248 252 249 243 242 246 247 242 239 241 242 244 245 244 241 238 237 239 240 238 236 242 246 243 242 239 237 241 242 243 245 244 243 243 241 240 241 241 240 238 235 232 232 234 237 238 236 234 239 246 245 239 239 234 219 201 203 212 208 202 196 191 189 187 185
266 265 263 263 262 261 260 259 258 258 257 255 253 251 251 250 249 248 247 247 246 244 242 244 248 250 246 241 241 245 245 242 240 239 241 243 243 240 239 241 242 242 239 236 244 248 243 244 243 240 243 242 241 243 242 242 245 243 241 241 240 238 236 234 230 228 228 229 231 230 226 230 240 241 237 238 236 223 208 205 210 209 206 201 196 196 196 196
266 265 263 262 261 260 259 257 256 256 256 255 253 250 249 248 247 246 245 245 244 242 241 242 244 247 248 244 241 242 245 244 241 239 237 239 242 240 239 242 242 239 234 232 242 245 238 238 241 241 243 243 242 242 242 245 246 243 241 241 242 240 237 234 231 227 224 220 223 226 221 221 233 237 237 238 234 227 219 210 209 209 209 207 201 197 198 200
265 265 263 261 259 258 258 256 255 254 253 254 253 251 248 246 245 246 244 243 242 241 240 240 240 242 245 245 243 241 242 244 243 240 237 236 238 237 236 238 239 236 232 231 238 240 236 236 240 243 247 248 247 246 244 245 245 242 243 245 246 244 240 236 233 228 223 219 222 228 222 217 230 236 238 238 232 229 228 218 211 210 210 212 208 202 199 202
264 263 263 262 260 258 256 255 254 252 251 251 252 251 249 247 245 244 243 243 242 240 239 238 237 238 240 242 243 242 242 243 242 241 238 235 235 235 234 236 238 238 235 235 239 242 241 240 243 247 249 247 244 243 241 242 242 243 246 247 246 245 240 237 233 227 224 220 222 229 224 218 231 236 236 237 234 232 232 226 217 212 211 213 214 210 204 203
263 262 261 261 260 258 256 254 252 251 250 249 249 249 249 248 246 242 241 242 242 239 239 238 236 236 237 239 241 242 242 242 242 241 239 237 235 235 235 235 236 236 235 236 238 241 239 237 240 241 241 240 241 242 241 241 242 242 243 244 245 243 236 233 232 227 225 222 222 228 224 217 230 236 234 236 237 236 235 231 223 216 212 212 215 216 212 208
263 262 260 259 259 258 256 254 252 250 249 248 247 248 248 248 246 243 240 240 241 240 239 238 237 236 236 237 239 241 241 241 242 242 241 238 236 236 236 234 233 233 234 235 235 236 235 234 236 237 236 239 242 243 241 238 241 239 237 241 241 237 232 231 235 232 228 225 223 226 223 216 227 237 236 235 237 238 237 234 228 221 215 212 214 217 216 213
263 262 260 258 258 257 255 254 252 250 249 248 247 246 246 245 245 243 241 239 240 240 240 239 238 236 236 236 237 239 240 241 241 241 241 239 237 236 236 236 234 232 233 235 235 236 235 235 237 236 237 240 241 243 239 234 238 237 232 240 240 237 233 232 235 234 230 225 222 222 219 215 223 233 235 231 231 234 235 236 233 226 221 216 216 216 216 215
263 261 260 258 257 256 255 253 252 251 249 248 247 245 244 244 243 243 242 240 239 239 239 240 239 238 237 236 236 238 240 241 240 240 240 240 238 236 236 237 237 235 234 234 235 236 237 238 241 240 239 242 242 242 239 234 236 234 233 243 245 240 231 228 230 231 226 223 222 219 216 216 219 227 231 229 228 229 230 232 233 230 226 223 221 219 217 216
261 261 259 258 256 255 254 253 252 251 249 248 247 245 243 243 243 242 241 240 239 238 238 239 239 239 238 237 236 237 239 240 241 240 239 239 239 237 236 237 238 237 236 235 234 235 236 238 242 241 240 241 242 241 238 234 234 234 237 244 246 238 230 224 226 229 226 225 225 220 217 218 218 223 228 227 226 227 227 229 231 231 229 228 226 224 220 219
261 260 259 257 256 254 253 252 251 250 249 248 247 245 244 242 242 241 240 239 238 238 238 238 239 239 238 238 237 237 238 240 241 240 239 239 239 237 236 236 237 237 238 238 236 236 236 236 240 240 239 239 240 240 240 239 238 236 237 242 242 236 231 223 222 228 225 224 226 221 217 218 218 221 225 226 226 228 227 226 229 230 230 230 230 228 225 222
261 260 259 258 257 255 253 252 251 250 249 248 247 246 244 242 241 241 240 239 238 238 238 238 238 238 238 238 238 237 238 239 241 241 240 239 238 237 236 235 236 236 237 237 236 236 235 235 238 241 240 239 240 240 242 243 241 238 236 239 238 235 233 224 217 223 222 221 223 220 217 219 219 221 224 225 226 229 229 228 228 230 231 232 232 231 230 228
262 261 260 259 258 257 255 253 252 251 250 249 247 246 245 243 241 240 240 239 238 237 237 237 237 238 237 237 237 237 237 238 239 241 241 240 238 237 235 234 235 235 235 236 235 235 235 234 236 241 241 239 239 238 239 241 241 238 235 235 235 237 235 218 207 216 216 215 218 217 220 221 220 222 224 225 225 228 230 231 230 232 233 234 235 233 231 232
264 262 261 260 259 258 257 255 254 253 252 250 249 247 245 244 242 241 240 239 238 236 236 236 236 236 237 236 236 236 236 236 237 239 240 240 239 237 236 235 234 234 235 235 235 236 235 234 234 238 240 237 235 235 235 238 240 237 234 234 235 236 232 214 215 218 209 207 214 216 223 225 221 223 225 225 225 226 229 232 232 232 234 235 237 237 234 233
266 265 263 262 260 259 258 256 255 254 253 252 250 249 246 245 243 242 241 240 238 237 235 235 235 235 235 236 236 236 236 235 235 236 237 239 239 238 237 236 235 235 235 236 236 235 235 234 233 235 237 235 233 234 233 235 239 238 236 239 238 237 235 229 227 221 207 208 221 223 235 234 225 224 227 226 225 225 227 230 232 233 234 235 236 237 237 237
268 266 265 263 261 260 258 256 255 255 253 252 251 250 248 246 244 243 241 240 239 237 236 235 234 234 234 235 235 236 235 235 234 235 235 237 238 238 237 237 236 236 236 236 236 235 235 234 233 234 237 236 234 234 233 234 238 239 240 242 243 243 241 235 231 223 211 218 225 223 240 244 233 226 228 228 227 225 225 228 231 232 234 235 235 235 236 238
268 267 265 264 262 260 259 257 255 254 253 253 252 250 249 248 246 244 242 241 240 238 237 235 234 234 234 234 234 235 235 235 234 234 234 235 236 236 236 236 236 236 236 236 236 236 235 235 234 235 237 237 236 235 234 235 236 237 240 243 245 245 243 238 232 221 214 221 222 212 224 241 241 232 227 229 229 227 226 226 229 232 234 235 236 235 234 237
270 268 266 264 261 259 258 257 255 253 252 251 251 250 249 248 247 245 243 242 241 239 237 236 235 234 233 233 234 234 235 235 235 234 233 234 235 235 235 235 235 235 236 236 236 236 235 235 235 235 236 237 238 236 236 236 235 235 236 239 240 240 240 238 228 215 218 224 217 214 220 234 247 243 233 230 230 229 228 227 228 232 235 236 237 238 237 236
271 269 267 265 263 260 257 256 255 253 251 250 249 248 248 248 247 246 244 243 242 240 238 237 236 234 233 232 233 233 234 235 235 235 234 233 234 234 234 234 234 234 235 235 235 235 235 235 235 235 234 236 237 237 238 238 236 235 235 236 237 238 238 237 226 219 227 222 213 226 227 227 245 252 245 237 232 230 230 230 228 230 234 238 238 239 239 239
271 269 267 265 263 261 258 255 253 252 251 249 248 246 246 245 246 246 245 244 243 241 239 238 237 235 234 233 232 232 233 233 234 235 234 233 233 234 234 234 234 234 234 234 234 234 234 234 234 234 234 234 235 237 239 239 237 236 235 235 237 238 239 238 231 230 230 218 220 237 231 223 243 255 258 253 244 237 235 234 231 229 231 236 237 238 238 239
272 269 267 265 263 261 259 255 252 250 249 248 247 246 244 243 243 244 244 244 243 242 240 239 237 236 234 233 232 232 232 232 233 234 234 233 233 233 234 234 234 233 234 234 233 233 232 232 233 234 233 233 234 235 238 239 237 235 234 234 235 237 238 237 235 234 231 224 233 242 234 227 241 252 259 260 255 249 245 242 239 232 229 232 236 238 238 238
273 271 268 265 263 261 259 256 253 250 248 246 245 245 244 242 241 241 241 242 242 242 241 239 238 236 235 234 233 232 231 231 232 233 233 233 233 233 233 234 234 234 234 234 233 232 232 231 232 232 232 231 233 235 237 238 237 235 234 233 235 236 237 237 236 236 235 232 238 242 238 238 242 245 251 254 253 252 250 247 246 242 234 231 234 237 238 239
273 271 268 266 264 262 259 257 254 251 247 245 243 242 242 241 240 239 239 239 240 241 241 240 239 237 236 235 233 232 232 231 231 231 232 233 232 232 233 233 234 234 234 234 233 232 232 232 231 231 230 230 232 234 236 238 238 235 234 234 236 237 238 238 237 236 235 234 237 239 239 244 246 242 242 248 251 252 252 250 250 249 243 237 235 236 238 239
273 271 268 267 265 262 259 257 254 251 248 244 241 240 239 239 239 238 238 237 237 239 240 240 239 238 237 235 234 233 232 231 231 231 232 232 232 232 232 232 233 234 234 234 234 232 232 232 231 231 229 230 233 234 235 237 237 234 232 235 237 236 235 236 235 234 234 235 235 236 237 242 244 241 239 245 249 252 254 254 252 252 250 246 242 239 238 239
Height
10970 10970 10970 10971 10971 10971 10971 10971 10972 10972 10972 10973 10973 10973 10973 10973 10973 10973 10973 10973 10973 10973 10973 10974 10974 10975 10975 10975 10976 10976 10976 10975 10975 10975 10976 10976 10977 10976 10976 10976 10975 10976 10975 10974 10974 10974 10974 10974 10973 10973 10973 10972 10972 10971 10970 10969 10968 10967 10965 10964 10963 10962 10962 10963 10965 10965 10966 10967 10967 10967 10968 10969 10969 10969 10969 10969 10970 10971 10971 10972 10973 10973 10974 10975 10976 10977 10977 10978
10967 10967 10968 10968 10968 10969 10969 10969 10969 10970 10970 10970 10971 10971 10971 10971 10971 10971 10972 10972 10972 10972 10971 10972 10972 10973 10973 10974 10974 10974 10975 10974 10973 10973 10974 10974 10975 10976 10975 10975 10975 10974 10974 10974 10973 10973 10973 10973 10972 10972 10972 10971 10971 10970 10969 10968 10967 10966 10964 10963 10962 10961 10959 10960 10961 10962 10963 10964 10965 10965 10965 10966 10965 10965 10966 10967 10968 10968 10969 10969 10970 10971 10972 10972 10973 10974 10975 10976
10964 10964 10965 10965 10966 10966 10966 10967 10967 10967 10968 10968 10968 10968 10969 10969 10969 10969 10970 10970 10970 10970 10970 10970 10970 10971 10971 10971 10972 10972 10973 10973 10972 10972 10973 10973 10973 10974 10974 10974 10974 10974 10973 10973 10972 10972 10972 10972 10972 10971 10971 10971 10970 10969 10968 10968 10967 10966 10964 10962 10961 10960 10958 10958 10958 10958 10959 10961 10962 10962 10963 10963 10962 10962 10963 10964 10965 10965 10966 10967 10967 10968 10969 10970 10971 10971 10972 10973
10962 10962 10962 10963 10963 10963 10964 10964 10965 10965 10965 10965 10966 10966 10966 10966 10966 10967 10967 10967 10968 10968 10968 10968 10968 10968 10969 10969 10969 10970 10970 10971 10971 10970 10971 10971 10971 10971 10972 10972 10973 10973 10973 10972 10971 10971 10970 10971 10971 10971 10970 10970 10969 10968 10967 10967 10966 10965 10964 10962 10961 10959 10957 10957 10956 10956 10957 10958 10958 10959 10960 10959 10958 10959 10960 10961 10962 10963 10963 10964 10965 10966 10967 10968 10969 10969 10970 10971
10959 10959 10959 10960 10960 10960 10961 10961 10962 10962 10963 10963 10963 10963 10963 10964 10964 10964 10964 10964 10965 10966 10966 10966 10966 10966 10966 10966 10966 10967 10967 10968 10969 10969 10969 10969 10969 10969 10970 10970 10970 10971 10971 10971 10971 10970 10969 10969 10969 10969 10969 10969 10969 10968 10966 10966 10965 10964 10963 10962 10961 10959 10957 10956 10955 10955 10955 10956 10956 10956 10956 10955 10955 10956 10957 10958 10959 10960 10961 10962 10963 10963 10964 10965 10966 10967 10967 10968
10956 10956 10956 10956 10957 10957 10958 10958 10959 10959 10960 10960 10960 10960 10961 10961 10961 10961 10961 10961 10962 10963 10963 10963 10963 10964 10964 10964 10964 10964 10964 10964 10966 10967 10967 10967 10967 10966 10967 10967 10968 10968 10969 10969 10969 10969 10968 10968 10968 10968 10967 10967 10967 10967 10965 10965 10964 10963 10963 10962 10961 10959 10957 10956 10955 10955 10954 10954 10954 10954 10953 10952 10952 10953 10954 10955 10956 10957 10958 10959 10960 10961 10962 10963 10963 10964 10965 10965
10952 10953 10953 10953 10953 10954 10954 10955 10955 10956 10956 10957 10957 10957 10957 10957 10957 10957 10958 10958 10959 10959 10960 10960 10961 10961 10961 10961 10961 10961 10961 10961 10962 10964 10965 10965 10965 10964 10964 10965 10965 10965 10967 10967 10966 10967 10967 10967 10966 10966 10966 10965 10966 10966 10965 10964 10963 10963 10961 10961 10960 10960 10958 10956 10954 10954 10953 10953 10954 10953 10951 10950 10950 10951 10951 10952 10953 10954 10956 10957 10958 10959 10960 10960 10960 10961 10962 10963
10949 10949 10949 10949 10950 10950 10951 10951 10951 10952 10953 10953 10954 10954 10953 10953 10953 10953 10954 10955 10955 10955 10956 10957 10958 10958 10958 10958 10959 10959 10959 10959 10959 10960 10961 10962 10963 10963 10962 10962 10962 10963 10964 10964 10964 10964 10965 10966 10965 10965 10964 10964 10964 10964 10964 10963 10963 10962 10961 10959 10959 10959 10958 10956 10954 10953 10952 10952 10953 10953 10950 10948 10948 10948 10949 10949 10950 10951 10953 10954 10955 10956 10957 10957 10958 10958 10959 10960
10945 10945 10945 10945 10946 10946 10947 10947 10948 10948 10949 10950 10950 10950 10949 10948 10948 10950 10951 10951 10950 10951 10952 10953 10954 10954 10954 10954 10955 10956 10956 10956 10956 10956 10957 10958 10959 10960 10960 10959 10959 10960 10961 10961 10961 10961 10962 10964 10963 10963 10963 10963 10962 10962 10962 10962 10962 10962 10961 10959 10958 10958 10957 10956 10954 10952 10951 10951 10952 10952 10950 10948 10946 10946 10947 10948 10948 10949 10950 10951 10952 10953 10954 10955 10955 10956 10957 10958
10940 10941 10941 10941 10941 10942 10942 10943 10943 10944 10945 10946 10946 10945 10943 10943 10944 10946 10947 10946 10945 10947 10948 10948 10948 10949 10949 10950 10951 10951 10953 10953 10952 10952 10953 10954 10955 10956 10957 10956 10956 10957 10957 10958 10957 10957 10960 10962 10961 10960 10961 10962 10961 10960 10960 10960 10960 10960 10960 10959 10958 10957 10957 10955 10953 10952 10950 10950 10951 10951 10949 10947 10946 10945 10946 10946 10947 10947 10948 10949 10950 10951 10952 10953 10953 10954 10955 10956
10936 10936 10936 10936 10937 10937 10938 10938 10938 10939 10941 10941 10941 10940 10938 10938 10940 10942 10942 10941 10940 10942 10943 10943 10943 10944 10945 10946 10946 10946 10949 10949 10948 10948 10948 10949 10950 10951 10952 10953 10953 10953 10954 10954 10954 10955 10957 10959 10958 10957 10958 10960 10960 10959 10958 10958 10958 10958 10958 10958 10957 10957 10956 10955 10953 10951 10950 10949 10949 10949 10948 10947 10945 10945 10945 10945 10946 10946 10947 10948 10949 10949 10950 10951 10952 10953 10954 10955
10930 10931 10931 10931 10932 10932 10932 10933 10933 10935 10936 10937 10936 10934 10933 10933 10936 10938 10937 10935 10935 10937 10938 10938 10939 10939 10940 10941 10940 10941 10945 10944 10944 10944 10943 10944 10945 10946 10947 10949 10949 10949 10950 10950 10951 10952 10953 10955 10955 10953 10955 10957 10958 10957 10956 10956 10956 10957 10957 10956 10956 10955 10955 10954 10952 10950 10949 10948 10947 10947 10946 10945 10945 10944 10945 10945 10945 10946 10946 10947 10947 10948 10948 10949 10950 10951 10952 10954
10925 10925 10925 10926 10926 10927 10927 10927 10928 10929 10931 10932 10930 10928 10928 10929 10931 10933 10932 10931 10930 10931 10933 10933 10934 10935 10936 10936 10935 10937 10940 10940 10940 10939 10938 10938 10940 10941 10942 10943 10945 10945 10945 10945 10946 10948 10950 10951 10950 10950 10952 10953 10954 10955 10954 10954 10954 10955 10955 10955 10954 10953 10953 10953 10952 10951 10949 10947 10946 10945 10944 10943 10943 10943 10944 10944 10944 10945 10946 10946 10946 10946 10947 10948 10949 10950 10951 10952
10919 10919 10920 10920 10920 10921 10921 10921 10922 10924 10926 10926 10924 10923 10922 10924 10926 10927 10927 10925 10924 10926 10927 10928 10929 10929 10930 10929 10929 10932 10934 10935 10935 10933 10933 10934 10934 10936 10937 10938 10939 10940 10940 10941 10942 10944 10946 10946 10946 10946 10947 10948 10951 10953 10952 10951 10952 10953 10953 10954 10954 10952 10951 10952 10952 10951 10948 10946 10945 10944 10943 10942 10942 10942 10943 10943 10943 10944 10945 10945 10945 10946 10946 10947 10948 10949 10950 10951
10912 10913 10913 10913 10914 10914 10915 10915 10915 10918 10920 10920 10918 10917 10917 10919 10920 10920 10921 10920 10919 10920 10921 10922 10923 10923 10924 10922 10924 10927 10927 10928 10928 10928 10929 10928 10928 10930 10931 10932 10933 10934 10936 10936 10937 10939 10941 10942 10940 10941 10942 10945 10948 10949 10949 10948 10948 10949 10951 10953 10953 10951 10950 10951 10951 10950 10947 10945 10945 10944 10943 10941 10941 10941 10941 10942 10942 10943 10944 10944 10945 10945 10945 10946 10947 10948 10949 10950
10906 10907 10907 10907 10907 10908 10909 10908 10908 10912 10914 10913 10912 10912 10912 10913 10914 10914 10914 10914 10913 10913 10914 10916 10916 10917 10917 10915 10917 10921 10920 10920 10921 10922 10923 10923 10923 10923 10924 10926 10927 10928 10930 10932 10933 10933 10935 10935 10935 10936 10938 10941 10943 10944 10945 10945 10944 10946 10949 10951 10952 10950 10949 10949 10950 10949 10947 10944 10944 10945 10944 10942 10941 10941 10940 10941 10942 10942 10943 10944 10944 10945 10945 10945 10946 10947 10948 10949
10899 10900 10900 10900 10900 10901 10902 10902 10902 10904 10907 10907 10906 10906 10906 10907 10908 10908 10908 10908 10907 10907 10908 10910 10909 10910 10911 10909 10910 10914 10913 10913 10914 10915 10916 10916 10917 10917 10918 10919 10920 10922 10924 10926 10927 10927 10929 10929 10929 10931 10934 10936 10938 10940 10941 10940 10940 10944 10948 10949 10950 10948 10947 10947 10948 10947 10946 10944 10944 10945 10944 10943 10942 10941 10941 10941 10942 10942 10943 10944 10944 10945 10945 10945 10946 10947 10947 10948
10892 10892 10893 10893 10893 10894 10895 10896 10895 10897 10900 10900 10899 10900 10901 10901 10901 10901 10902 10901 10900 10901 10902 10902 10902 10903 10905 10904 10904 10907 10907 10907 10907 10908 10908 10908 10910 10911 10912 10913 10914 10915 10917 10919 10920 10922 10923 10923 10924 10926 10928 10930 10932 10935 10934 10934 10939 10943 10945 10947 10947 10946 10944 10945 10946 10946 10945 10944 10943 10944 10945 10944 10943 10943 10942 10942 10942 10942 10943 10944 10944 10944 10944 10945 10945 10946 10947 10948
10884 10884 10885 10885 10886 10887 10888 10888 10888 10889 10891 10893 10893 10892 10894 10895 10895 10895 10895 10894 10894 10895 10895 10895 10895 10896 10898 10899 10899 10900 10901 10902 10901 10901 10902 10902 10902 10904 10906 10907 10907 10909 10910 10912 10914 10916 10918 10918 10919 10919 10920 10923 10927 10929 10928 10931 10938 10941 10942 10944 10944 10944 10942 10942 10944 10945 10945 10944 10943 10943 10944 10945 10944 10943 10943 10943 10943 10943 10943 10944 10944 10944 10944 10944 10945 10946 10946 10947
10876 10877 10877 10877 10878 10880 10880 10881 10881 10882 10882 10884 10886 10885 10887 10888 10888 10888 10887 10887 10888 10888 10888 10888 10887 10888 10891 10895 10896 10894 10894 10897 10896 10894 10898 10898 10896 10898 10900 10901 10901 10902 10905 10906 10907 10910 10911 10912 10911 10910 10913 10918 10923 10925 10925 10928 10934 10938 10938 10940 10941 10941 10939 10939 10941 10943 10944 10943 10943 10943 10943 10944 10944 10944 10944 10944 10943 10943 10943 10943 10943 10943 10943 10944 10945 10945 10946 10946
10869 10869 10869 10868 10869 10871 10873 10873 10873 10874 10874 10875 10877 10878 10880 10880 10882 10882 10879 10880 10880 10881 10881 10881 10881 10880 10882 10890 10892 10890 10890 10889 10888 10890 10893 10895 10893 10892 10893 10895 10896 10897 10899 10901 10901 10903 10904 10904 10905 10907 10911 10915 10918 10920 10921 10924 10929 10934 10934 10935 10937 10936 10936 10937 10939 10940 10942 10942 10942 10942 10942 10943 10943 10943 10944 10943 10942 10942 10942 10942 10943 10943 10943 10943 10944 10944 10945 10946
10861 10861 10861 10859 10860 10862 10865 10866 10866 10866 10866 10866 10868 10870 10872 10872 10875 10875 10874 10872 10871 10874 10874 10872 10876 10872 10873 10885 10887 10885 10885 10880 10881 10886 10888 10889 10890 10888 10888 10890 10890 10892 10895 10895 10896 10897 10897 10899 10902 10905 10907 10910 10912 10914 10916 10919 10924 10928 10929 10931 10932 10931 10933 10935 10936 10938 10940 10941 10941 10941 10941 10942 10942 10943 10943 10943 10942 10941 10941 10941 10942 10942 10942 10942 10943 10943 10944 10945
10852 10853 10852 10851 10850 10851 10855 10858 10858 10858 10858 10858 10858 10860 10863 10865 10867 10867 10868 10866 10862 10866 10867 10865 10869 10866 10865 10877 10883 10882 10879 10873 10876 10881 10880 10882 10885 10886 10886 10885 10886 10889 10891 10890 10891 10892 10892 10895 10899 10899 10901 10903 10906 10908 10910 10913 10918 10922 10924 10925 10924 10925 10930 10932 10933 10937 10939 10940 10941 10940 10940 10941 10941 10942 10942 10942 10941 10941 10940 10941 10941 10941 10942 10942 10942 10942 10943 10944
10842 10843 10843 10842 10841 10841 10844 10848 10851 10850 10850 10849 10849 10851 10853 10856 10858 10859 10861 10861 10856 10856 10859 10860 10862 10860 10859 10869 10879 10878 10871 10867 10871 10875 10874 10875 10880 10883 10883 10882 10884 10886 10885 10885 10888 10888 10888 10892 10894 10894 10895 10897 10899 10902 10904 10908 10912 10914 10917 10917 10915 10920 10926 10928 10932 10935 10936 10939 10940 10939 10939 10940 10940 10941 10940 10941 10941 10940 10940 10940 10941 10941 10942 10942 10942 10942 10942 10943
10833 10834 10834 10832 10832 10831 10832 10837 10841 10841 10840 10840 10841 10842 10843 10845 10848 10851 10852 10855 10854 10845 10846 10856 10857 10854 10854 10862 10871 10871 10866 10863 10863 10868 10871 10870 10874 10878 10878 10880 10881 10880 10879 10883 10885 10883 10884 10888 10890 10889 10890 10892 10894 10897 10898 10901 10905 10908 10911 10909 10908 10916 10923 10927 10930 10932 10933 10936 10938 10938 10938 10938 10939 10939 10939 10940 10941 10940 10939 10939 10940 10941 10942 10942 10942 10942 10943 10943
10822 10824 10824 10823 10824 10822 10821 10826 10830 10831 10830 10830 10831 10833 10834 10835 10837 10842 10843 10847 10851 10839 10834 10847 10853 10850 10849 10854 10861 10863 10865 10860 10854 10864 10870 10864 10867 10872 10874 10877 10876 10874 10877 10881 10881 10879 10880 10884 10886 10885 10886 10888 10890 10891 10892 10895 10900 10903 10903 10900 10904 10914 10921 10924 10927 10930 10931 10933 10936 10938 10937 10936 10937 10937 10938 10939 10939 10939 10938 10938 10939 10941 10942 10942 10942 10943 10943 10944
10810 10813 10812 10813 10815 10813 10810 10813 10817 10820 10820 10818 10821 10823 10825 10826 10828 10832 10834 10838 10843 10836 10828 10835 10845 10849 10846 10846 10851 10855 10860 10854 10849 10861 10864 10857 10861 10867 10870 10872 10869 10870 10875 10878 10877 10874 10877 10881 10881 10881 10883 10884 10884 10884 10887 10892 10895 10894 10895 10898 10903 10911 10917 10920 10924 10928 10929 10931 10935 10937 10936 10935 10934 10935 10937 10937 10937 10937 10937 10937 10938 10940 10941 10942 10943 10943 10944 10945
10797 10800 10801 10801 10804 10804 10800 10800 10803 10808 10809 10807 10810 10813 10814 10817 10819 10822 10824 10828 10832 10831 10827 10827 10833 10843 10843 10841 10842 10846 10851 10849 10847 10855 10855 10854 10859 10863 10865 10865 10862 10866 10872 10875 10871 10869 10874 10877 10876 10879 10880 10879 10878 10881 10886 10888 10887 10887 10893 10898 10900 10906 10913 10917 10922 10926 10926 10929 10934 10935 10934 10932 10931 10933 10934 10933 10934 10936 10936 10936 10937 10939 10940 10941 10942 10943 10944 10945
10783 10787 10789 10789 10791 10792 10791 10790 10790 10793 10797 10796 10799 10803 10804 10807 10811 10812 10814 10819 10822 10824 10825 10823 10823 10831 10837 10837 10835 10837 10841 10843 10844 10848 10848 10851 10854 10856 10859 10857 10857 10863 10869 10870 10866 10865 10871 10871 10872 10876 10875 10873 10876 10880 10884 10882 10879 10884 10892 10894 10894 10901 10907 10912 10918 10921 10923 10929 10932 10932 10932 10930 10927 10930 10931 10930 10932 10934 10934 10935 10936 10937 10939 10941 10942 10943 10944 10945
10770 10773 10776 10778 10778 10778 10780 10780 10779 10780 10782 10784 10787 10792 10793 10797 10800 10802 10806 10812 10813 10815 10819 10819 10818 10821 10826 10830 10829 10829 10832 10835 10838 10841 10843 10845 10846 10851 10853 10852 10855 10861 10863 10865 10862 10862 10866 10866 10869 10871 10869 10870 10875 10878 10878 10876 10876 10883 10889 10887 10889 10895 10900 10906 10912 10915 10920 10927 10927 10925 10927 10926 10924 10925 10925 10927 10931 10932 10932 10933 10934 10936 10938 10939 10941 10941 10943 10945
10756 10759 10762 10767 10766 10765 10767 10769 10769 10769 10768 10769 10774 10779 10782 10786 10789 10792 10801 10805 10802 10806 10811 10812 10813 10813 10814 10819 10822 10822 10823 10825 10830 10834 10837 10839 10840 10845 10848 10848 10851 10854 10857 10860 10857 10855 10859 10862 10864 10864 10865 10869 10872 10873 10873 10871 10874 10880 10883 10882 10886 10891 10895 10901 10905 10910 10918 10922 10918 10916 10922 10924 10920 10919 10921 10925 10929 10930 10930 10932 10933 10935 10936 10938 10939 10940 10942 10943
10742 10744 10748 10752 10754 10754 10755 10756 10756 10757 10757 10756 10758 10765 10769 10773 10778 10785 10795 10794 10790 10797 10802 10803 10806 10805 10805 10808 10811 10813 10814 10817 10822 10825 10829 10833 10835 10839 10841 10842 10844 10847 10852 10853 10848 10849 10855 10858 10859 10861 10863 10866 10867 10868 10868 10868 10871 10877 10879 10880 10884 10887 10891 10897 10900 10906 10912 10913 10910 10911 10919 10922 10916 10915 10919 10922 10925 10927 10929 10931 10932 10933 10935 10936 10938 10939 10940 10942
10726 10730 10733 10736 10739 10742 10743 10742 10741 10742 10745 10745 10745 10750 10754 10760 10770 10780 10782 10778 10779 10787 10790 10792 10796 10796 10796 10797 10799 10803 10806 10808 10813 10816 10821 10826 10829 10832 10835 10836 10838 10843 10846 10845 10843 10847 10852 10855 10857 10859 10859 10860 10861 10862 10863 10865 10869 10874 10876 10878 10881 10883 10888 10891 10893 10899 10902 10904 10905 10907 10917 10922 10914 10912 10916 10917 10922 10926 10927 10930 10931 10931 10933 10934 10936 10937 10938 10940
10710 10715 10718 10720 10723 10727 10729 10728 10728 10728 10730 10732 10734 10736 10740 10750 10761 10767 10767 10765 10768 10775 10778 10780 10785 10786 10787 10788 10789 10794 10798 10799 10803 10808 10814 10819 10824 10827 10829 10831 10833 10836 10838 10838 10840 10843 10846 10850 10852 10852 10851 10853 10856 10858 10860 10864 10867 10871 10872 10875 10878 10878 10881 10883 10885 10891 10894 10897 10903 10906 10917 10922 10911 10906 10912 10916 10921 10924 10925 10927 10929 10929 10931 10932 10934 10935 10936 10938
10693 10698 10703 10706 10707 10710 10712 10712 10713 10714 10715 10718 10722 10724 10730 10740 10746 10749 10752 10754 10757 10763 10766 10768 10771 10775 10777 10778 10781 10785 10787 10790 10795 10801 10806 10812 10817 10819 10821 10823 10825 10828 10830 10832 10835 10836 10840 10844 10843 10843 10847 10850 10853 10854 10857 10862 10864 10866 10870 10873 10872 10870 10875 10880 10883 10888 10891 10896 10902 10906 10914 10917 10906 10902 10910 10916 10918 10920 10921 10923 10925 10927 10928 10929 10931 10932 10934 10935
10677 10680 10687 10692 10692 10691 10694 10696 10698 10700 10701 10703 10707 10713 10721 10726 10727 10731 10738 10743 10746 10750 10753 10754 10758 10762 10766 10770 10773 10776 10777 10781 10787 10793 10797 10802 10808 10810 10811 10814 10817 10821 10825 10826 10828 10830 10835 10837 10835 10839 10845 10847 10847 10849 10854 10859 10860 10863 10868 10867 10864 10867 10875 10880 10880 10883 10887 10893 10896 10899 10906 10908 10902 10901 10907 10912 10914 10915 10917 10918 10920 10923 10925 10926 10927 10929 10931 10933
10661 10663 10669 10676 10676 10674 10676 10679 10681 10684 10687 10689 10693 10702 10708 10709 10712 10718 10724 10730 10734 10738 10740 10742 10745 10750 10755 10760 10765 10767 10768 10772 10778 10783 10787 10792 10797 10801 10805 10808 10811 10815 10817 10819 10822 10826 10830 10831 10831 10837 10842 10841 10842 10847 10852 10856 10858 10861 10863 10860 10861 10868 10874 10875 10876 10878 10882 10886 10887 10891 10898 10901 10900 10899 10900 10906 10909 10910 10912 10913 10915 10919 10921 10923 10924 10926 10929 10930
10645 10645 10651 10658 10658 10657 10658 10661 10664 10668 10672 10674 10679 10686 10691 10694 10698 10703 10708 10715 10720 10724 10727 10730 10733 10739 10744 10749 10755 10758 10759 10761 10766 10773 10778 10781 10786 10793 10799 10801 10803 10806 10809 10813 10817 10821 10825 10826 10827 10832 10835 10835 10839 10845 10849 10853 10854 10856 10856 10856 10861 10867 10869 10871 10873 10875 10878 10881 10882 10888 10895 10897 10897 10895 10893 10899 10904 10905 10907 10909 10911 10915 10917 10919 10921 10924 10926 10928
10629 10628 10634 10640 10639 10638 10642 10644 10647 10651 10655 10659 10664 10668 10674 10681 10684 10686 10692 10700 10705 10710 10715 10717 10721 10727 10732 10737 10743 10747 10749 10751 10755 10762 10767 10771 10777 10785 10790 10792 10795 10799 10803 10807 10813 10816 10818 10820 10822 10825 10828 10831 10837 10843 10847 10848 10848 10850 10852 10855 10859 10862 10864 10868 10870 10872 10875 10877 10879 10884 10889 10889 10889 10887 10887 10892 10897 10900 10903 10906 10908 10911 10913 10915 10917 10921 10924 10926
10612 10612 10617 10624 10621 10619 10625 10629 10630 10634 10638 10642 10647 10652 10658 10665 10669 10671 10676 10684 10691 10697 10702 10706 10709 10715 10721 10725 10730 10734 10738 10742 10746 10751 10756 10762 10768 10774 10780 10784 10787 10792 10796 10800 10805 10806 10809 10815 10818 10818 10822 10829 10836 10840 10842 10841 10841 10845 10849 10852 10855 10858 10861 10865 10868 10870 10871 10873 10874 10878 10880 10880 10881 10882 10883 10887 10892 10896 10900 10903 10906 10907 10910 10912 10914 10918 10921 10923
10595 10595 10600 10608 10605 10601 10608 10613 10615 10617 10621 10625 10631 10637 10642 10647 10652 10656 10659 10666 10676 10683 10688 10692 10696 10702 10707 10712 10717 10721 10726 10732 10737 10740 10745 10750 10756 10763 10770 10775 10778 10783 10787 10790 10793 10795 10801 10811 10814 10813 10819 10827 10831 10833 10833 10833 10836 10841 10845 10848 10851 10855 10858 10863 10865 10866 10867 10869 10871 10873 10874 10874 10877 10879 10880 10884 10889 10893 10896 10900 10903 10905 10907 10909 10911 10915 10918 10920
10578 10577 10583 10591 10588 10585 10591 10596 10599 10602 10604 10608 10615 10621 10626 10629 10635 10641 10643 10649 10658 10665 10671 10677 10683 10688 10693 10698 10703 10707 10714 10721 10726 10730 10734 10737 10743 10753 10761 10765 10770 10774 10778 10780 10784 10790 10797 10804 10807 10809 10813 10818 10821 10823 10826 10828 10832 10837 10841 10845 10847 10852 10856 10859 10860 10860 10863 10866 10867 10870 10869 10869 10872 10875 10876 10880 10885 10889 10893 10896 10900 10902 10905 10907 10908 10911 10914 10917
10558 10557 10563 10572 10571 10568 10573 10578 10582 10586 10588 10591 10597 10603 10608 10612 10618 10625 10627 10631 10639 10646 10654 10663 10669 10673 10678 10684 10689 10693 10701 10708 10714 10719 10723 10725 10733 10743 10749 10755 10761 10764 10768 10772 10776 10783 10789 10795 10800 10803 10804 10807 10812 10816 10821 10824 10827 10833 10838 10841 10844 10849 10851 10853 10854 10857 10861 10864 10865 10867 10866 10865 10868 10871 10873 10876 10881 10885 10889 10892 10895 10898 10900 10903 10904 10907 10910 10913
10537 10536 10539 10548 10551 10549 10553 10559 10563 10567 10570 10575 10579 10584 10590 10595 10601 10609 10612 10613 10618 10628 10639 10648 10653 10658 10664 10671 10676 10680 10686 10693 10700 10707 10712 10715 10722 10732 10738 10745 10750 10753 10758 10763 10768 10775 10780 10785 10792 10796 10797 10800 10806 10810 10816 10821 10824 10829 10834 10837 10840 10842 10844 10847 10851 10854 10859 10861 10862 10865 10864 10861 10863 10867 10869 10872 10876 10881 10885 10887 10890 10892 10894 10897 10899 10903 10906 10908
10513 10513 10514 10520 10527 10528 10531 10538 10544 10548 10552 10557 10561 10567 10572 10577 10583 10591 10595 10596 10600 10612 10624 10629 10634 10643 10652 10659 10664 10665 10669 10678 10686 10694 10701 10705 10711 10720 10727 10733 10738 10743 10747 10753 10760 10766 10771 10777 10785 10789 10791 10795 10800 10805 10811 10815 10817 10823 10827 10830 10833 10835 10838 10842 10845 10850 10855 10857 10858 10861 10861 10857 10858 10862 10865 10868 10872 10876 10880 10883 10886 10887 10888 10890 10893 10898 10902 10904
10487 10487 10488 10491 10499 10505 10508 10515 10522 10527 10532 10538 10543 10548 10553 10559 10564 10572 10577 10578 10583 10597 10605 10608 10617 10629 10639 10646 10650 10652 10656 10663 10672 10680 10688 10693 10699 10708 10715 10720 10727 10733 10737 10744 10751 10756 10762 10769 10775 10779 10784 10789 10792 10797 10802 10805 10810 10817 10820 10822 10825 10828 10831 10836 10842 10849 10851 10852 10855 10857 10856 10855 10855 10856 10860 10864 10868 10871 10875 10879 10882 10883 10884 10886 10890 10894 10898 10901
10460 10461 10463 10463 10468 10477 10485 10492 10498 10502 10509 10518 10523 10528 10535 10541 10545 10552 10558 10561 10567 10578 10585 10590 10602 10613 10623 10630 10634 10639 10645 10650 10657 10665 10674 10681 10687 10694 10702 10708 10715 10722 10727 10733 10740 10746 10754 10760 10764 10770 10777 10781 10785 10790 10793 10797 10804 10810 10812 10815 10819 10822 10826 10833 10841 10846 10846 10848 10853 10852 10852 10854 10853 10851 10855 10860 10864 10867 10871 10875 10878 10880 10881 10883 10886 10889 10893 10896
10437 10437 10440 10441 10441 10448 10459 10468 10473 10477 10485 10495 10501 10507 10515 10523 10527 10532 10538 10544 10550 10559 10566 10575 10586 10596 10604 10613 10619 10626 10633 10637 10642 10649 10658 10669 10676 10681 10688 10694 10701 10710 10716 10721 10729 10737 10744 10750 10754 10760 10768 10774 10779 10782 10784 10788 10795 10800 10804 10810 10814 10817 10823 10832 10838 10840 10841 10846 10849 10846 10848 10853 10852 10849 10851 10855 10859 10863 10867 10870 10873 10875 10876 10877 10879 10883 10886 10889
10418 10418 10420 10421 10421 10426 10434 10441 10448 10454 10462 10472 10479 10484 10493 10503 10508 10513 10519 10526 10531 10539 10548 10558 10567 10576 10585 10594 10603 10611 10618 10623 10628 10634 10644 10656 10664 10670 10675 10680 10688 10697 10703 10709 10717 10726 10734 10740 10744 10750 10760 10766 10770 10773 10775 10777 10783 10790 10798 10804 10808 10814 10821 10828 10832 10834 10838 10842 10843 10843 10847 10850 10849 10848 10847 10850 10854 10857 10861 10864 10866 10868 10870 10872 10874 10876 10879 10882
10402 10402 10403 10403 10405 10410 10414 10419 10426 10432 10439 10450 10456 10460 10469 10479 10488 10494 10501 10507 10512 10519 10530 10539 10547 10558 10567 10577 10587 10595 10601 10608 10615 10624 10633 10642 10651 10657 10661 10667 10675 10683 10690 10697 10705 10714 10723 10729 10733 10741 10750 10756 10760 10763 10764 10767 10775 10783 10791 10799 10805 10812 10818 10823 10827 10830 10834 10838 10839 10839 10844 10846 10845 10844 10844 10845 10849 10852 10855 10858 10859 10862 10865 10868 10870 10871 10872 10875
10389 10388 10388 10388 10391 10396 10399 10403 10408 10412 10419 10429 10434 10438 10446 10455 10464 10473 10480 10489 10496 10500 10509 10520 10529 10540 10551 10560 10570 10577 10583 10593 10604 10613 10620 10628 10637 10642 10648 10656 10662 10668 10677 10684 10692 10703 10711 10717 10724 10731 10739 10746 10749 10750 10755 10761 10767 10775 10786 10798 10806 10811 10815 10817 10820 10824 10828 10831 10832 10835 10841 10840 10836 10837 10840 10842 10845 10848 10850 10853 10855 10858 10860 10863 10865 10866 10867 10868
10377 10376 10376 10376 10378 10384 10386 10389 10393 10394 10400 10409 10413 10417 10424 10433 10442 10451 10459 10470 10479 10482 10491 10503 10512 10523 10533 10542 10550 10558 10568 10581 10594 10602 10607 10615 10622 10628 10636 10644 10649 10656 10665 10671 10680 10692 10700 10707 10713 10719 10729 10736 10735 10738 10748 10753 10757 10771 10789 10798 10800 10802 10805 10807 10811 10816 10821 10823 10826 10832 10835 10830 10826 10832 10838 10840 10842 10844 10846 10849 10851 10853 10855 10857 10859 10861 10861 10862